Volk, WI

3:34 AM CDT on June 24, 2017 (GMT -0500)
Volk

Weather History for KVOK - October, 2013

Change the Weather History Date:

Saturday, October 5, 2013

  Actual Average Record
Temperature  
Mean Temperature 62 °F -  
Max Temperature 69 °F 60 °F 82 °F (2005)
Min Temperature 50 °F 42 °F 23 °F (2004)
Degree Days  
Heating Degree Days 4    
Growing Degree Days 12 (Base 50)    
Moisture  
Dew Point 61 °F    
Average Humidity 99    
Maximum Humidity 100    
Minimum Humidity 76    
Precipitation  
Precipitation 0.24 in - - ()
Sea Level Pressure  
Sea Level Pressure 29.85 in    
Wind  
Wind Speed 10 mph (ESE)    
Max Wind Speed 21 mph    
Max Gust Speed 25 mph    
Visibility 7 miles    
Events Rain , Thunderstorm    
Averages and records for this station are not official NWS values.
T = Trace of Precipitation, MM = Missing Value Source: NWS Daily Summary

Daily Weather History Graph

Daily Weather History Graph

Search for Another Location

Airport or City:

Trip Planner

Search our weather history database for the weather conditions in past years. The results will help you decide how hot, cold, wet, or windy it might be!

Date:

Astronomy

Oct. 05, 2013 Rise Set
Actual Time 7:03 AM CDT 6:34 PM CDT
Civil Twilight 6:34 AM CDT 7:03 PM CDT
Nautical Twilight 6:01 AM CDT 7:36 PM CDT
Astronomical Twilight 5:27 AM CDT 8:09 PM CDT
Moon 7:45 AM CDT (10/5) 6:50 PM CDT (10/5)
Length of Visible Light 12h 28m
Length of Day
11h 30m
New Moon, 1% of the Moon is Illuminated
Oct 5
New Moon
Oct 11
First Quarter
Oct 18
Full
Oct 26
Last Quarter
Nov 3
New

Hourly Weather History & Observations

Time (CDT) Temp. Dew Point Humidity Pressure Visibility Wind Dir Wind Speed Gust Speed Precip Events Conditions
12:13 AM 57.2 °F 57.2 °F 100% 29.92 in 5.0 mi East 12.7 mph - N/A   Overcast
12:45 AM 57.2 °F 57.2 °F 100% 29.96 in 4.0 mi NNW 6.9 mph - N/A   Light Drizzle
12:50 AM 57.2 °F 57.2 °F 100% 29.96 in 4.0 mi North 3.5 mph - N/A   Light Drizzle
12:58 AM 57.9 °F 57.9 °F 100% 29.97 in 3.0 mi NE 5.8 mph - 0.00 in   Light Drizzle
1:03 AM 57.2 °F 57.2 °F 100% 29.96 in 3.0 mi ENE 6.9 mph - N/A   Light Drizzle
1:08 AM 57.2 °F 57.2 °F 100% 29.94 in 3.0 mi ENE 11.5 mph - N/A   Light Drizzle
1:09 AM 57.2 °F 57.2 °F 100% 29.94 in 3.0 mi ENE 10.4 mph - N/A   Overcast
1:24 AM 57.2 °F 57.2 °F 100% 29.93 in 4.0 mi ENE 9.2 mph - N/A   Overcast
1:34 AM 57.2 °F 57.2 °F 100% 29.93 in 5.0 mi East 5.8 mph - N/A   Overcast
1:39 AM 57.2 °F 57.2 °F 100% 29.92 in 5.0 mi East 8.1 mph - N/A   Overcast
1:58 AM 57.9 °F 57.9 °F 100% 29.93 in 4.0 mi ENE 8.1 mph - 0.00 in   Overcast
2:03 AM 57.2 °F 57.2 °F 100% 29.91 in 4.0 mi East 12.7 mph - N/A   Overcast
2:38 AM 57.2 °F 57.2 °F 100% 29.89 in 4.0 mi ENE 17.3 mph - N/A   Overcast
2:48 AM 57.2 °F 57.2 °F 100% 29.89 in 4.0 mi East 10.4 mph - N/A Thunderstorm Overcast
2:50 AM 57.2 °F 57.2 °F 100% 29.89 in 4.0 mi East 12.7 mph - N/A Rain , Thunderstorm Light Rain
2:54 AM 57.2 °F 57.2 °F 100% 29.87 in 3.0 mi East 15.0 mph - N/A Rain , Thunderstorm Light Thunderstorms and Rain
2:58 AM 58.1 °F 58.1 °F 100% 29.88 in 3.0 mi East 16.1 mph 23.0 mph 0.00 in Rain , Thunderstorm Heavy Thunderstorms and Rain
3:03 AM 57.2 °F 57.2 °F 100% 29.94 in 2.5 mi WNW 15.0 mph 23.0 mph N/A Rain , Thunderstorm Thunderstorms and Rain
3:08 AM 59.0 °F 59.0 °F 100% 29.95 in 3.0 mi WNW 11.5 mph 24.2 mph N/A Rain , Thunderstorm Thunderstorms and Rain
3:13 AM 59.0 °F 59.0 °F 100% 29.94 in 1.5 mi WNW 18.4 mph 24.2 mph N/A Rain , Thunderstorm Heavy Thunderstorms and Rain
3:17 AM 59.0 °F 59.0 °F 100% 29.93 in 1.2 mi NNW 12.7 mph 20.7 mph N/A Rain , Thunderstorm Heavy Thunderstorms and Rain
3:22 AM 59.0 °F 59.0 °F 100% 29.94 in 2.0 mi Variable 2.3 mph - N/A Rain , Thunderstorm Heavy Thunderstorms and Rain
3:27 AM 59.0 °F 59.0 °F 100% 29.92 in 1.5 mi East 10.4 mph - N/A Rain , Thunderstorm Heavy Thunderstorms and Rain
3:37 AM 59.0 °F 59.0 °F 100% 29.92 in 4.0 mi East 8.1 mph - N/A Rain , Thunderstorm Light Thunderstorms and Rain
3:40 AM 59.0 °F 59.0 °F 100% 29.91 in 9.0 mi NE 5.8 mph - N/A Rain , Thunderstorm Light Rain
3:45 AM 59.0 °F 59.0 °F 100% 29.92 in 9.0 mi East 9.2 mph - N/A Rain Light Rain
3:58 AM 58.1 °F 58.1 °F 100% 29.92 in 5.0 mi East 15.0 mph - 0.14 in Rain Rain
4:03 AM 59.0 °F 59.0 °F 100% 29.89 in 5.0 mi East 12.7 mph - N/A Rain Rain
4:08 AM 59.0 °F 59.0 °F 100% 29.90 in 6.0 mi East 13.8 mph - N/A Rain Light Rain
4:27 AM 59.0 °F 59.0 °F 100% 29.90 in 10.0 mi East 9.2 mph - N/A Rain , Thunderstorm Light Thunderstorms and Rain
4:31 AM 59.0 °F 59.0 °F 100% 29.89 in 10.0 mi East 12.7 mph - N/A Thunderstorm Thunderstorm
4:42 AM 59.0 °F 59.0 °F 100% 29.89 in 10.0 mi East 11.5 mph - N/A   Mostly Cloudy
4:45 AM 59.0 °F 59.0 °F 100% 29.89 in 10.0 mi East 11.5 mph - N/A   Mostly Cloudy
4:58 AM 58.1 °F 58.1 °F 100% 29.90 in 10.0 mi East 11.5 mph - 0.04 in   Scattered Clouds
5:06 AM 59.0 °F 59.0 °F 100% 29.92 in 10.0 mi SE 10.4 mph - N/A Rain , Thunderstorm Light Rain
5:09 AM 59.0 °F 59.0 °F 100% 29.91 in 10.0 mi ESE 10.4 mph - N/A Rain , Thunderstorm Light Rain
5:31 AM 59.0 °F 59.0 °F 100% 29.88 in 10.0 mi SE 9.2 mph - N/A   Mostly Cloudy
5:47 AM 59.0 °F 59.0 °F 100% 29.88 in 10.0 mi ESE 9.2 mph - N/A   Mostly Cloudy
5:58 AM 58.5 °F 58.5 °F 100% 29.89 in 10.0 mi ESE 11.5 mph - 0.01 in   Mostly Cloudy
6:13 AM 59.0 °F 59.0 °F 100% 29.88 in 10.0 mi SE 9.2 mph - N/A   Mostly Cloudy
6:18 AM 59.0 °F 59.0 °F 100% 29.87 in 10.0 mi ESE 11.5 mph - N/A   Mostly Cloudy
6:23 AM 59.0 °F 59.0 °F 100% 29.87 in 10.0 mi ESE 10.4 mph - N/A   Mostly Cloudy
6:48 AM 59.0 °F 59.0 °F 100% 29.86 in 10.0 mi ESE 10.4 mph - N/A   Overcast
6:58 AM 59.0 °F 59.0 °F 100% 29.87 in 10.0 mi ESE 10.4 mph - N/A   Overcast
7:23 AM 59.0 °F 59.0 °F 100% 29.86 in 10.0 mi ESE 9.2 mph - N/A   Overcast
7:37 AM 59.0 °F 59.0 °F 100% 29.86 in 10.0 mi ESE 11.5 mph - N/A Rain Light Rain
7:58 AM 59.7 °F 59.7 °F 100% 29.86 in 10.0 mi ESE 10.4 mph - 0.00 in Rain Light Rain
8:14 AM 60.8 °F 60.8 °F 100% 29.86 in 10.0 mi SE 11.5 mph - N/A   Overcast
8:58 AM 60.1 °F 60.1 °F 100% 29.87 in 10.0 mi SE 12.7 mph - 0.00 in   Overcast
9:13 AM 60.8 °F 60.8 °F 100% 29.86 in 9.0 mi SE 11.5 mph - N/A   Overcast
9:58 AM 60.8 °F 60.8 °F 100% 29.87 in 6.0 mi SE 9.2 mph - N/A   Overcast
10:58 AM 61.5 °F 61.5 °F 100% 29.87 in 3.0 mi ESE 9.2 mph - N/A   Overcast
11:14 AM 62.6 °F 62.6 °F 100% 29.86 in 4.0 mi ESE 6.9 mph - N/A Rain Light Rain
11:28 AM 62.6 °F 62.6 °F 100% 29.86 in 6.0 mi ESE 4.6 mph - N/A   Overcast
11:58 AM 63.0 °F 63.0 °F 100% 29.87 in 4.0 mi SE 5.8 mph - 0.01 in   Overcast
12:31 PM 64.4 °F 64.4 °F 100% 29.85 in 4.0 mi SE 8.1 mph - N/A   Light Drizzle
12:58 PM 64.4 °F 64.4 °F 100% 29.86 in 5.0 mi ESE 8.1 mph - 0.00 in   Light Drizzle
1:08 PM 64.4 °F 64.4 °F 100% 29.84 in 6.0 mi SE 6.9 mph - N/A Rain Light Rain
1:55 PM 64.4 °F 64.4 °F 100% 29.80 in 8.0 mi ESE 9.2 mph - N/A   Overcast
1:58 PM 64.4 °F 64.4 °F 100% 29.81 in 9.0 mi ESE 9.2 mph - 0.01 in   Overcast
2:58 PM 66.7 °F 66.7 °F 100% 29.78 in 10.0 mi SSE 9.2 mph - N/A   Overcast
3:33 PM 68.0 °F 68.0 °F 100% 29.76 in 10.0 mi SE 8.1 mph - N/A   Overcast
3:43 PM 68.0 °F 68.0 °F 100% 29.76 in 10.0 mi SSE 4.6 mph - N/A   Overcast
3:48 PM 68.0 °F 68.0 °F 100% 29.75 in 10.0 mi SE 4.6 mph - N/A   Overcast
3:58 PM 68.7 °F 68.7 °F 100% 29.77 in 10.0 mi SE 5.8 mph - N/A   Overcast
4:03 PM 69.8 °F 69.8 °F 100% 29.76 in 10.0 mi SE 6.9 mph - N/A   Overcast
4:13 PM 69.8 °F 69.8 °F 100% 29.76 in 10.0 mi ESE 5.8 mph - N/A   Mostly Cloudy
4:23 PM 69.8 °F 69.8 °F 100% 29.76 in 10.0 mi ESE 5.8 mph - N/A   Scattered Clouds
4:58 PM 69.1 °F 69.1 °F 100% 29.75 in 10.0 mi East 8.1 mph - N/A   Clear
5:00 PM 69.8 °F 69.8 °F 100% 29.74 in 10.0 mi East 9.2 mph - N/A   Partly Cloudy
5:30 PM 69.8 °F 69.8 °F 100% 29.74 in 10.0 mi East 10.4 mph - N/A   Scattered Clouds
5:35 PM 69.8 °F 69.8 °F 100% 29.73 in 10.0 mi East 10.4 mph - N/A   Mostly Cloudy
5:58 PM 68.9 °F 68.9 °F 100% 29.73 in 10.0 mi East 9.2 mph - N/A   Mostly Cloudy
6:03 PM 68.0 °F 68.0 °F 100% 29.72 in 9.0 mi ESE 10.4 mph - N/A   Drizzle
6:08 PM 68.0 °F 68.0 °F 100% 29.72 in 3.0 mi East 13.8 mph - N/A Rain Rain
6:11 PM 68.0 °F 68.0 °F 100% 29.71 in 1.5 mi East 13.8 mph - N/A Rain Heavy Rain
6:16 PM 68.0 °F 68.0 °F 100% 29.72 in 1.5 mi ESE 10.4 mph - N/A Rain Light Rain
6:20 PM 68.0 °F 68.0 °F 100% 29.73 in 3.0 mi SSW 6.9 mph - N/A Rain Light Rain
6:25 PM 68.0 °F 68.0 °F 100% 29.73 in 9.0 mi South 8.1 mph - N/A Rain Light Rain
6:32 PM 68.0 °F 68.0 °F 100% 29.72 in 10.0 mi SE 6.9 mph - N/A   Mostly Cloudy
6:42 PM 68.0 °F 68.0 °F 100% 29.72 in 10.0 mi SSE 8.1 mph - N/A   Mostly Cloudy
6:58 PM 68.4 °F 68.4 °F 100% 29.72 in 10.0 mi SSE 4.6 mph - 0.03 in   Scattered Clouds
7:38 PM 66.2 °F 62.6 °F 88% 29.73 in 10.0 mi WSW 20.7 mph 25.3 mph N/A   Mostly Cloudy
7:43 PM 64.4 °F 62.6 °F 94% 29.73 in 10.0 mi WSW 12.7 mph 25.3 mph N/A   Mostly Cloudy
7:58 PM 63.9 °F 61.9 °F 93% 29.74 in 10.0 mi SW 9.2 mph - N/A   Mostly Cloudy
8:58 PM 62.1 °F 61.5 °F 98% 29.75 in 10.0 mi WSW 4.6 mph - N/A   Overcast
9:58 PM 60.8 °F 53.6 °F 77% 29.76 in 10.0 mi WSW 10.4 mph - N/A   Overcast
10:58 PM 54.7 °F 47.1 °F 76% 29.77 in 10.0 mi West 9.2 mph - N/A   Clear
11:58 PM 50.7 °F 45.7 °F 83% 29.77 in 10.0 mi West 4.6 mph - N/A   Clear